owner,sensor,date,latitude,longitude,vertical_datum,wind_speed,wind_to_direction,wind_speed_of_gust,qcFlag 
DISL,ioos:station:DISL:BSCA:1,2018-11-01T00:00:00Z,30.3288,-87.8293,0.0,7.9,156.0,99.0,'11111222,11111222,11144222' 
DISL,ioos:station:DISL:BSCA:1,2018-11-01T00:30:00Z,30.3288,-87.8293,0.0,7.0,162.0,99.0,'11111222,11111222,11144222' 
DISL,ioos:station:DISL:BSCA:1,2018-11-01T01:00:00Z,30.3288,-87.8293,0.0,7.4,162.0,99.0,'11111222,11111222,11144222' 
DISL,ioos:station:DISL:BSCA:1,2018-11-01T01:30:00Z,30.3288,-87.8293,0.0,7.7,157.0,99.0,'11111222,11111222,11144222' 
DISL,ioos:station:DISL:BSCA:1,2018-11-01T02:00:00Z,30.3288,-87.8293,0.0,8.6,163.0,99.0,'11111222,11111222,11144222' 
DISL,ioos:station:DISL:BSCA:1,2018-11-01T02:30:00Z,30.3288,-87.8293,0.0,8.0,165.0,99.0,'11111222,11111222,11144222' 
DISL,ioos:station:DISL:BSCA:1,2018-11-01T03:00:00Z,30.3288,-87.8293,0.0,9.6,152.0,99.0,'11111222,11111222,11144222' 
DISL,ioos:station:DISL:BSCA:1,2018-11-01T03:20:00Z,30.3288,-87.8293,0.0,9.86,150.6,-9999.0,'1111122,1111122,1111122' 
DISL,ioos:station:DISL:BSCA:1,2018-11-01T03:30:00Z,30.3288,-87.8293,0.0,10.4,148.0,99.0,'11111222,11111222,11144222' 
DISL,ioos:station:DISL:BSCA:1,2018-11-01T04:00:00Z,30.3288,-87.8293,0.0,11.4,149.0,99.0,'11111222,11111222,11144222' 
DISL,ioos:station:DISL:BSCA:1,2018-11-01T04:20:00Z,30.3288,-87.8293,0.0,11.82,149.2,-9999.0,'1111122,1111122,1111122' 
DISL,ioos:station:DISL:BSCA:1,2018-11-01T04:30:00Z,30.3288,-87.8293,0.0,11.3,149.0,99.0,'11111222,11111222,11144222' 
DISL,ioos:station:DISL:BSCA:1,2018-11-01T05:00:00Z,30.3288,-87.8293,0.0,10.8,149.0,99.0,'11111222,11111222,11144222' 
DISL,ioos:station:DISL:BSCA:1,2018-11-01T05:30:00Z,30.3288,-87.8293,0.0,11.8,152.0,99.0,'11111222,11111222,11144222' 
DISL,ioos:station:DISL:BSCA:1,2018-11-01T05:50:00Z,30.3288,-87.8293,0.0,10.66,149.8,-9999.0,'1111122,1111122,1111122' 
DISL,ioos:station:DISL:BSCA:1,2018-11-01T06:00:00Z,30.3288,-87.8293,0.0,11.8,152.0,99.0,'11111222,11111222,11144222' 
DISL,ioos:station:DISL:BSCA:1,2018-11-01T06:20:00Z,30.3288,-87.8293,0.0,11.53,152.6,-9999.0,'1111122,1111122,1111122' 
DISL,ioos:station:DISL:BSCA:1,2018-11-01T06:30:00Z,30.3288,-87.8293,0.0,11.3,154.0,99.0,'11111222,11111222,11144222' 
DISL,ioos:station:DISL:BSCA:1,2018-11-01T07:00:00Z,30.3288,-87.8293,0.0,12.7,155.0,99.0,'11111222,11111222,11144222' 
DISL,ioos:station:DISL:BSCA:1,2018-11-01T07:20:00Z,30.3288,-87.8293,0.0,12.02,153.6,-9999.0,'1111122,1111122,1111122' 
DISL,ioos:station:DISL:BSCA:1,2018-11-01T07:30:00Z,30.3288,-87.8293,0.0,12.2,157.0,99.0,'11111222,11111222,11144222' 
DISL,ioos:station:DISL:BSCA:1,2018-11-01T08:00:00Z,30.3288,-87.8293,0.0,11.5,155.0,99.0,'11111222,11111222,11144222' 
DISL,ioos:station:DISL:BSCA:1,2018-11-01T08:30:00Z,30.3288,-87.8293,0.0,12.3,156.0,99.0,'11111222,11111222,11144222' 
DISL,ioos:station:DISL:BSCA:1,2018-11-01T08:50:00Z,30.3288,-87.8293,0.0,11.99,163.0,-9999.0,'1111122,1111122,1111122' 
DISL,ioos:station:DISL:BSCA:1,2018-11-01T09:00:00Z,30.3288,-87.8293,0.0,11.8,167.0,99.0,'11111222,11111222,11144222' 
DISL,ioos:station:DISL:BSCA:1,2018-11-01T09:30:00Z,30.3288,-87.8293,0.0,11.5,166.0,99.0,'11111222,11111222,11144222' 
DISL,ioos:station:DISL:BSCA:1,2018-11-01T09:50:00Z,30.3288,-87.8293,0.0,11.64,161.6,-9999.0,'1111122,1111122,1111122' 
DISL,ioos:station:DISL:BSCA:1,2018-11-01T10:00:00Z,30.3288,-87.8293,0.0,11.6,164.0,99.0,'11111222,11111222,11144222' 
DISL,ioos:station:DISL:BSCA:1,2018-11-01T10:20:00Z,30.3288,-87.8293,0.0,12.7,163.2,-9999.0,'1111122,1111122,1111122' 
DISL,ioos:station:DISL:BSCA:1,2018-11-01T10:30:00Z,30.3288,-87.8293,0.0,12.8,163.0,99.0,'11111222,11111222,11144222' 
DISL,ioos:station:DISL:BSCA:1,2018-11-01T11:00:00Z,30.3288,-87.8293,0.0,12.9,165.0,99.0,'11111222,11111222,11144222' 
DISL,ioos:station:DISL:BSCA:1,2018-11-01T11:20:00Z,30.3288,-87.8293,0.0,12.24,166.2,-9999.0,'1111122,1111122,1111122' 
DISL,ioos:station:DISL:BSCA:1,2018-11-01T11:30:00Z,30.3288,-87.8293,0.0,13.1,170.0,99.0,'11111222,11111222,11144222' 
DISL,ioos:station:DISL:BSCA:1,2018-11-01T12:00:00Z,30.3288,-87.8293,0.0,13.3,175.0,99.0,'11111222,11111222,11144222' 
DISL,ioos:station:DISL:BSCA:1,2018-11-01T12:30:00Z,30.3288,-87.8293,0.0,11.3,179.0,99.0,'11111222,11111222,11144222' 
DISL,ioos:station:DISL:BSCA:1,2018-11-01T12:50:00Z,30.3288,-87.8293,0.0,11.21,176.4,-9999.0,'1111122,1111122,1111122' 
DISL,ioos:station:DISL:BSCA:1,2018-11-01T13:00:00Z,30.3288,-87.8293,0.0,12.1,181.0,99.0,'11111222,11111222,11144222' 
DISL,ioos:station:DISL:BSCA:1,2018-11-01T13:30:00Z,30.3288,-87.8293,0.0,7.0,290.0,99.0,'11111222,11111222,11144222' 
DISL,ioos:station:DISL:BSCA:1,2018-11-01T13:50:00Z,30.3288,-87.8293,0.0,5.71,278.6,-9999.0,'1111122,1111122,1111122' 
DISL,ioos:station:DISL:BSCA:1,2018-11-01T14:00:00Z,30.3288,-87.8293,0.0,6.4,333.0,99.0,'11111222,11111222,11144222' 
DISL,ioos:station:DISL:BSCA:1,2018-11-01T14:30:00Z,30.3288,-87.8293,0.0,6.3,306.0,99.0,'11111222,11111222,11144222' 
DISL,ioos:station:DISL:BSCA:1,2018-11-01T14:50:00Z,30.3288,-87.8293,0.0,6.58,309.1,-9999.0,'1111122,1111122,1111122' 
DISL,ioos:station:DISL:BSCA:1,2018-11-01T15:00:00Z,30.3288,-87.8293,0.0,6.2,313.0,99.0,'11111222,11111222,11144222' 
DISL,ioos:station:DISL:BSCA:1,2018-11-01T15:20:00Z,30.3288,-87.8293,0.0,4.15,324.6,-9999.0,'1111122,1111122,1111122' 
DISL,ioos:station:DISL:BSCA:1,2018-11-01T15:30:00Z,30.3288,-87.8293,0.0,3.8,334.0,99.0,'11111222,11111222,11144222' 
DISL,ioos:station:DISL:BSCA:1,2018-11-01T16:00:00Z,30.3288,-87.8293,0.0,1.6,73.0,99.0,'11111222,11111222,11144222' 
DISL,ioos:station:DISL:BSCA:1,2018-11-01T16:30:00Z,30.3288,-87.8293,0.0,2.8,116.0,99.0,'11111222,11111222,11144222' 
DISL,ioos:station:DISL:BSCA:1,2018-11-01T16:50:00Z,30.3288,-87.8293,0.0,3.04,150.1,-9999.0,'1111122,1111122,1111122' 
DISL,ioos:station:DISL:BSCA:1,2018-11-01T17:00:00Z,30.3288,-87.8293,0.0,4.1,168.0,99.0,'11111222,11111222,11144222' 
DISL,ioos:station:DISL:BSCA:1,2018-11-01T17:30:00Z,30.3288,-87.8293,0.0,6.2,151.0,99.0,'11111222,11111222,11144222' 
DISL,ioos:station:DISL:BSCA:1,2018-11-01T17:50:00Z,30.3288,-87.8293,0.0,7.01,155.0,-9999.0,'1111122,1111122,1111122' 
DISL,ioos:station:DISL:BSCA:1,2018-11-01T18:00:00Z,30.3288,-87.8293,0.0,6.6,166.0,99.0,'11111222,11111222,11144222' 
DISL,ioos:station:DISL:BSCA:1,2018-11-01T18:20:00Z,30.3288,-87.8293,0.0,6.36,188.4,-9999.0,'1111122,1111122,1111122' 
DISL,ioos:station:DISL:BSCA:1,2018-11-01T18:30:00Z,30.3288,-87.8293,0.0,6.6,180.0,99.0,'11111222,11111222,11144222' 
DISL,ioos:station:DISL:BSCA:1,2018-11-01T19:20:00Z,30.3288,-87.8293,0.0,6.39,138.9,-9999.0,'1111122,1111122,1111122' 
DISL,ioos:station:DISL:BSCA:1,2018-11-01T20:00:00Z,30.3288,-87.8293,0.0,3.1,222.0,99.0,'11111222,11111222,11144222' 
DISL,ioos:station:DISL:BSCA:1,2018-11-01T20:30:00Z,30.3288,-87.8293,0.0,5.4,218.0,99.0,'11111222,11111222,11144222' 
DISL,ioos:station:DISL:BSCA:1,2018-11-01T20:50:00Z,30.3288,-87.8293,0.0,5.69,219.1,-9999.0,'1111122,1111122,1111122' 
DISL,ioos:station:DISL:BSCA:1,2018-11-01T21:00:00Z,30.3288,-87.8293,0.0,5.9,217.0,99.0,'11111222,11111222,11144222' 
DISL,ioos:station:DISL:BSCA:1,2018-11-01T21:30:00Z,30.3288,-87.8293,0.0,5.6,223.0,99.0,'11111222,11111222,11144222' 
DISL,ioos:station:DISL:BSCA:1,2018-11-01T21:50:00Z,30.3288,-87.8293,0.0,6.69,233.9,-9999.0,'1111122,1111122,1111122' 
DISL,ioos:station:DISL:BSCA:1,2018-11-01T22:00:00Z,30.3288,-87.8293,0.0,6.4,241.0,99.0,'11111222,11111222,11144222' 
DISL,ioos:station:DISL:BSCA:1,2018-11-01T22:20:00Z,30.3288,-87.8293,0.0,5.93,229.3,-9999.0,'1111122,1111122,1111122' 
DISL,ioos:station:DISL:BSCA:1,2018-11-01T22:30:00Z,30.3288,-87.8293,0.0,6.2,229.0,99.0,'11111222,11111222,11144222' 
DISL,ioos:station:DISL:BSCA:1,2018-11-01T23:00:00Z,30.3288,-87.8293,0.0,6.6,237.0,99.0,'11111222,11111222,11144222' 
DISL,ioos:station:DISL:BSCA:1,2018-11-01T23:20:00Z,30.3288,-87.8293,0.0,7.5,237.5,-9999.0,'1111122,1111122,1111122' 
DISL,ioos:station:DISL:BSCA:1,2018-11-01T23:30:00Z,30.3288,-87.8293,0.0,6.7,229.0,99.0,'11111222,11111222,11144222' 
DISL,ioos:station:DISL:BSCA:1,2018-11-02T00:00:00Z,30.3288,-87.8293,0.0,5.1,223.0,99.0,'11111222,11111222,11144222' 
DISL,ioos:station:DISL:BSCA:1,2018-11-02T00:30:00Z,30.3288,-87.8293,0.0,6.1,220.0,99.0,'11111222,11111222,11144222' 
DISL,ioos:station:DISL:BSCA:1,2018-11-02T00:50:00Z,30.3288,-87.8293,0.0,7.06,215.5,-9999.0,'1111122,1111122,1111122' 
DISL,ioos:station:DISL:BSCA:1,2018-11-02T01:00:00Z,30.3288,-87.8293,0.0,6.6,221.0,99.0,'11111222,11111222,11144222' 
DISL,ioos:station:DISL:BSCA:1,2018-11-02T01:30:00Z,30.3288,-87.8293,0.0,6.2,222.0,99.0,'11111222,11111222,11144222' 
DISL,ioos:station:DISL:BSCA:1,2018-11-02T01:50:00Z,30.3288,-87.8293,0.0,6.56,218.3,-9999.0,'1111122,1111122,1111122' 
DISL,ioos:station:DISL:BSCA:1,2018-11-02T02:00:00Z,30.3288,-87.8293,0.0,6.7,219.0,99.0,'11111222,11111222,11144222' 
DISL,ioos:station:DISL:BSCA:1,2018-11-02T02:20:00Z,30.3288,-87.8293,0.0,6.53,213.1,-9999.0,'1111122,1111122,1111122' 
DISL,ioos:station:DISL:BSCA:1,2018-11-02T02:30:00Z,30.3288,-87.8293,0.0,7.1,219.0,99.0,'11111222,11111222,11144222' 
DISL,ioos:station:DISL:BSCA:1,2018-11-02T03:00:00Z,30.3288,-87.8293,0.0,7.2,216.0,99.0,'11111222,11111222,11144222' 
DISL,ioos:station:DISL:BSCA:1,2018-11-02T03:20:00Z,30.3288,-87.8293,0.0,6.89,218.2,-9999.0,'1111122,1111122,1111122' 
DISL,ioos:station:DISL:BSCA:1,2018-11-02T03:30:00Z,30.3288,-87.8293,0.0,7.0,218.0,99.0,'11111222,11111222,11144222' 
DISL,ioos:station:DISL:BSCA:1,2018-11-02T04:00:00Z,30.3288,-87.8293,0.0,7.0,208.0,99.0,'11111222,11111222,11144222' 
DISL,ioos:station:DISL:BSCA:1,2018-11-02T04:20:00Z,30.3288,-87.8293,0.0,9.02,264.2,-9999.0,'1111122,1111122,1111122' 
DISL,ioos:station:DISL:BSCA:1,2018-11-02T04:30:00Z,30.3288,-87.8293,0.0,8.5,287.0,99.0,'11111222,11111222,11144222' 
DISL,ioos:station:DISL:BSCA:1,2018-11-02T05:00:00Z,30.3288,-87.8293,0.0,7.3,293.0,99.0,'11111222,11111222,11144222' 
DISL,ioos:station:DISL:BSCA:1,2018-11-02T05:20:00Z,30.3288,-87.8293,0.0,7.03,286.3,-9999.0,'1111122,1111122,1111122' 
DISL,ioos:station:DISL:BSCA:1,2018-11-02T05:30:00Z,30.3288,-87.8293,0.0,6.5,287.0,99.0,'11111222,11111222,11144222' 
DISL,ioos:station:DISL:BSCA:1,2018-11-02T06:00:00Z,30.3288,-87.8293,0.0,7.2,285.0,99.0,'11111222,11111222,11144222' 
DISL,ioos:station:DISL:BSCA:1,2018-11-02T06:30:00Z,30.3288,-87.8293,0.0,7.9,292.0,99.0,'11111222,11111222,11144222' 
DISL,ioos:station:DISL:BSCA:1,2018-11-02T06:50:00Z,30.3288,-87.8293,0.0,9.14,290.0,-9999.0,'1111122,1111122,1111122' 
DISL,ioos:station:DISL:BSCA:1,2018-11-02T07:00:00Z,30.3288,-87.8293,0.0,8.8,285.0,99.0,'11111222,11111222,11144222' 
DISL,ioos:station:DISL:BSCA:1,2018-11-02T07:20:00Z,30.3288,-87.8293,0.0,8.31,288.9,-9999.0,'1111122,1111122,1111122' 
DISL,ioos:station:DISL:BSCA:1,2018-11-02T07:30:00Z,30.3288,-87.8293,0.0,8.7,293.0,99.0,'11111222,11111222,11144222' 
DISL,ioos:station:DISL:BSCA:1,2018-11-02T08:00:00Z,30.3288,-87.8293,0.0,8.0,306.0,99.0,'11111222,11111222,11144222' 
DISL,ioos:station:DISL:BSCA:1,2018-11-02T08:30:00Z,30.3288,-87.8293,0.0,7.6,316.0,99.0,'11111222,11111222,11144222' 
DISL,ioos:station:DISL:BSCA:1,2018-11-02T08:50:00Z,30.3288,-87.8293,0.0,6.11,308.1,-9999.0,'1111122,1111122,1111122' 
DISL,ioos:station:DISL:BSCA:1,2018-11-02T09:00:00Z,30.3288,-87.8293,0.0,5.4,316.0,99.0,'11111222,11111222,11144222' 
DISL,ioos:station:DISL:BSCA:1,2018-11-02T09:30:00Z,30.3288,-87.8293,0.0,6.7,306.0,99.0,'11111222,11111222,11144222' 
DISL,ioos:station:DISL:BSCA:1,2018-11-02T09:50:00Z,30.3288,-87.8293,0.0,7.49,317.7,-9999.0,'1111122,1111122,1111122' 
DISL,ioos:station:DISL:BSCA:1,2018-11-02T10:00:00Z,30.3288,-87.8293,0.0,9.2,300.0,99.0,'11111222,11111222,11144222' 
DISL,ioos:station:DISL:BSCA:1,2018-11-02T10:20:00Z,30.3288,-87.8293,0.0,9.51,291.8,-9999.0,'1111122,1111122,1111122' 
DISL,ioos:station:DISL:BSCA:1,2018-11-02T10:30:00Z,30.3288,-87.8293,0.0,10.0,294.0,99.0,'11111222,11111222,11144222' 
DISL,ioos:station:DISL:BSCA:1,2018-11-02T11:00:00Z,30.3288,-87.8293,0.0,9.4,300.0,99.0,'11111222,11111222,11144222' 
DISL,ioos:station:DISL:BSCA:1,2018-11-02T11:20:00Z,30.3288,-87.8293,0.0,8.25,294.0,-9999.0,'1111122,1111122,1111122' 
DISL,ioos:station:DISL:BSCA:1,2018-11-02T11:30:00Z,30.3288,-87.8293,0.0,7.6,295.0,99.0,'11111222,11111222,11144222' 
DISL,ioos:station:DISL:BSCA:1,2018-11-02T12:00:00Z,30.3288,-87.8293,0.0,7.9,302.0,99.0,'11111222,11111222,11144222' 
DISL,ioos:station:DISL:BSCA:1,2018-11-02T12:30:00Z,30.3288,-87.8293,0.0,8.9,299.0,99.0,'11111222,11111222,11144222' 
DISL,ioos:station:DISL:BSCA:1,2018-11-02T12:50:00Z,30.3288,-87.8293,0.0,9.92,317.4,-9999.0,'1111122,1111122,1111122' 
DISL,ioos:station:DISL:BSCA:1,2018-11-02T13:00:00Z,30.3288,-87.8293,0.0,9.5,319.0,99.0,'11111222,11111222,11144222' 
DISL,ioos:station:DISL:BSCA:1,2018-11-02T13:30:00Z,30.3288,-87.8293,0.0,8.9,316.0,99.0,'11111222,11111222,11144222' 
DISL,ioos:station:DISL:BSCA:1,2018-11-02T13:50:00Z,30.3288,-87.8293,0.0,7.76,310.4,-9999.0,'1111122,1111122,1111122' 
DISL,ioos:station:DISL:BSCA:1,2018-11-02T14:00:00Z,30.3288,-87.8293,0.0,7.4,327.0,99.0,'11111222,11111222,11144222' 
DISL,ioos:station:DISL:BSCA:1,2018-11-02T14:20:00Z,30.3288,-87.8293,0.0,7.68,309.1,-9999.0,'1111122,1111122,1111122' 
DISL,ioos:station:DISL:BSCA:1,2018-11-02T14:30:00Z,30.3288,-87.8293,0.0,8.6,317.0,99.0,'11111222,11111222,11144222' 
DISL,ioos:station:DISL:BSCA:1,2018-11-02T15:00:00Z,30.3288,-87.8293,0.0,8.5,330.0,99.0,'11111222,11111222,11144222' 
DISL,ioos:station:DISL:BSCA:1,2018-11-02T15:20:00Z,30.3288,-87.8293,0.0,8.76,326.9,-9999.0,'1111122,1111122,1111122' 
DISL,ioos:station:DISL:BSCA:1,2018-11-02T15:30:00Z,30.3288,-87.8293,0.0,8.3,315.0,99.0,'11111222,11111222,11144222' 
DISL,ioos:station:DISL:BSCA:1,2018-11-02T16:00:00Z,30.3288,-87.8293,0.0,8.9,315.0,99.0,'11111222,11111222,11144222' 
DISL,ioos:station:DISL:BSCA:1,2018-11-02T16:30:00Z,30.3288,-87.8293,0.0,10.2,319.0,99.0,'11111222,11111222,11144222' 
DISL,ioos:station:DISL:BSCA:1,2018-11-02T16:50:00Z,30.3288,-87.8293,0.0,9.36,317.2,-9999.0,'1111122,1111122,1111122' 
DISL,ioos:station:DISL:BSCA:1,2018-11-02T17:00:00Z,30.3288,-87.8293,0.0,9.1,313.0,99.0,'11111222,11111222,11144222' 
DISL,ioos:station:DISL:BSCA:1,2018-11-02T17:30:00Z,30.3288,-87.8293,0.0,8.5,316.0,99.0,'11111222,11111222,11144222' 
DISL,ioos:station:DISL:BSCA:1,2018-11-02T17:50:00Z,30.3288,-87.8293,0.0,8.71,320.7,-9999.0,'1111122,1111122,1111122' 
DISL,ioos:station:DISL:BSCA:1,2018-11-02T18:00:00Z,30.3288,-87.8293,0.0,8.9,311.0,99.0,'11111222,11111222,11144222' 
DISL,ioos:station:DISL:BSCA:1,2018-11-02T18:20:00Z,30.3288,-87.8293,0.0,8.61,314.0,-9999.0,'1111122,1111122,1111122' 
DISL,ioos:station:DISL:BSCA:1,2018-11-02T18:30:00Z,30.3288,-87.8293,0.0,9.2,311.0,99.0,'11111222,11111222,11144222' 
DISL,ioos:station:DISL:BSCA:1,2018-11-02T19:00:00Z,30.3288,-87.8293,0.0,9.4,323.0,99.0,'11111222,11111222,11144222' 
DISL,ioos:station:DISL:BSCA:1,2018-11-02T19:20:00Z,30.3288,-87.8293,0.0,9.11,313.8,-9999.0,'1111122,1111122,1111122' 
DISL,ioos:station:DISL:BSCA:1,2018-11-02T19:30:00Z,30.3288,-87.8293,0.0,8.5,325.0,99.0,'11111222,11111222,11144222' 
DISL,ioos:station:DISL:BSCA:1,2018-11-02T20:00:00Z,30.3288,-87.8293,0.0,9.4,318.0,99.0,'11111222,11111222,11144222' 
DISL,ioos:station:DISL:BSCA:1,2018-11-02T20:20:00Z,30.3288,-87.8293,0.0,8.47,318.2,-9999.0,'1111122,1111122,1111122' 
DISL,ioos:station:DISL:BSCA:1,2018-11-02T20:30:00Z,30.3288,-87.8293,0.0,7.6,328.0,99.0,'11111222,11111222,11144222' 
DISL,ioos:station:DISL:BSCA:1,2018-11-02T21:00:00Z,30.3288,-87.8293,0.0,8.1,333.0,99.0,'11111222,11111222,11144222' 
DISL,ioos:station:DISL:BSCA:1,2018-11-02T21:30:00Z,30.3288,-87.8293,0.0,8.1,324.0,99.0,'11111222,11111222,11144222' 
DISL,ioos:station:DISL:BSCA:1,2018-11-02T21:50:00Z,30.3288,-87.8293,0.0,7.32,339.3,-9999.0,'1111122,1111122,1111122' 
DISL,ioos:station:DISL:BSCA:1,2018-11-02T22:00:00Z,30.3288,-87.8293,0.0,6.8,333.0,99.0,'11111222,11111222,11144222' 
DISL,ioos:station:DISL:BSCA:1,2018-11-02T22:20:00Z,30.3288,-87.8293,0.0,6.34,343.3,-9999.0,'1111122,1111122,1111122' 
DISL,ioos:station:DISL:BSCA:1,2018-11-02T22:30:00Z,30.3288,-87.8293,0.0,6.2,348.0,99.0,'11111222,11111222,11144222' 
DISL,ioos:station:DISL:BSCA:1,2018-11-02T23:00:00Z,30.3288,-87.8293,0.0,4.1,348.0,99.0,'11111222,11111222,11144222' 
DISL,ioos:station:DISL:BSCA:1,2018-11-02T23:20:00Z,30.3288,-87.8293,0.0,3.57,352.3,-9999.0,'1111122,1111122,1111122' 
DISL,ioos:station:DISL:BSCA:1,2018-11-02T23:30:00Z,30.3288,-87.8293,0.0,3.0,353.0,99.0,'11111222,11111222,11144222' 
DISL,ioos:station:DISL:BSCA:1,2018-11-03T00:00:00Z,30.3288,-87.8293,0.0,2.5,2.0,99.0,'11111222,11111222,11144222' 
DISL,ioos:station:DISL:BSCA:1,2018-11-03T00:20:00Z,30.3288,-87.8293,0.0,2.79,350.4,-9999.0,'1111122,1111122,1111122' 
DISL,ioos:station:DISL:BSCA:1,2018-11-03T00:30:00Z,30.3288,-87.8293,0.0,2.8,356.0,99.0,'11111222,11111222,11144222' 
DISL,ioos:station:DISL:BSCA:1,2018-11-03T01:00:00Z,30.3288,-87.8293,0.0,2.4,348.0,99.0,'11111222,11111222,11144222' 
DISL,ioos:station:DISL:BSCA:1,2018-11-03T01:20:00Z,30.3288,-87.8293,0.0,2.19,4.003,-9999.0,'1111122,1111122,1111122' 
DISL,ioos:station:DISL:BSCA:1,2018-11-03T01:30:00Z,30.3288,-87.8293,0.0,2.1,354.0,99.0,'11111222,11111222,11144222' 
DISL,ioos:station:DISL:BSCA:1,2018-11-03T02:00:00Z,30.3288,-87.8293,0.0,2.8,318.0,99.0,'11111222,11111222,11144222' 
DISL,ioos:station:DISL:BSCA:1,2018-11-03T02:20:00Z,30.3288,-87.8293,0.0,3.66,292.7,-9999.0,'1111122,1111122,1111122' 
DISL,ioos:station:DISL:BSCA:1,2018-11-03T02:30:00Z,30.3288,-87.8293,0.0,3.6,294.0,99.0,'11111222,11111222,11144222' 
DISL,ioos:station:DISL:BSCA:1,2018-11-03T03:00:00Z,30.3288,-87.8293,0.0,4.1,292.0,99.0,'11111222,11111222,11144222' 
DISL,ioos:station:DISL:BSCA:1,2018-11-03T03:20:00Z,30.3288,-87.8293,0.0,4.53,289.7,-9999.0,'1111122,1111122,1111122' 
DISL,ioos:station:DISL:BSCA:1,2018-11-03T03:30:00Z,30.3288,-87.8293,0.0,4.7,286.0,99.0,'11111222,11111222,11144222' 
DISL,ioos:station:DISL:BSCA:1,2018-11-03T04:00:00Z,30.3288,-87.8293,0.0,5.4,281.0,99.0,'11111222,11111222,11144222' 
DISL,ioos:station:DISL:BSCA:1,2018-11-03T04:30:00Z,30.3288,-87.8293,0.0,4.9,268.0,99.0,'11111222,11111222,11144222' 
DISL,ioos:station:DISL:BSCA:1,2018-11-03T04:50:00Z,30.3288,-87.8293,0.0,5.73,280.7,-9999.0,'1111122,1111122,1111122' 
DISL,ioos:station:DISL:BSCA:1,2018-11-03T05:00:00Z,30.3288,-87.8293,0.0,6.8,284.0,99.0,'11111222,11111222,11144222' 
DISL,ioos:station:DISL:BSCA:1,2018-11-03T05:20:00Z,30.3288,-87.8293,0.0,7.02,287.1,-9999.0,'1111122,1111122,1111122' 
DISL,ioos:station:DISL:BSCA:1,2018-11-03T05:30:00Z,30.3288,-87.8293,0.0,7.2,290.0,99.0,'11111222,11111222,11144222' 
DISL,ioos:station:DISL:BSCA:1,2018-11-03T06:00:00Z,30.3288,-87.8293,0.0,7.4,290.0,99.0,'11111222,11111222,11144222' 
DISL,ioos:station:DISL:BSCA:1,2018-11-03T06:20:00Z,30.3288,-87.8293,0.0,7.7,291.8,-9999.0,'1111122,1111122,1111122' 
DISL,ioos:station:DISL:BSCA:1,2018-11-03T06:30:00Z,30.3288,-87.8293,0.0,7.8,297.0,99.0,'11111222,11111222,11144222' 
DISL,ioos:station:DISL:BSCA:1,2018-11-03T07:00:00Z,30.3288,-87.8293,0.0,7.4,291.0,99.0,'11111222,11111222,11144222' 
DISL,ioos:station:DISL:BSCA:1,2018-11-03T07:20:00Z,30.3288,-87.8293,0.0,6.56,289.7,-9999.0,'1111122,1111122,1111122' 
DISL,ioos:station:DISL:BSCA:1,2018-11-03T07:30:00Z,30.3288,-87.8293,0.0,7.1,296.0,99.0,'11111222,11111222,11144222' 
DISL,ioos:station:DISL:BSCA:1,2018-11-03T08:00:00Z,30.3288,-87.8293,0.0,6.9,304.0,99.0,'11111222,11111222,11144222' 
DISL,ioos:station:DISL:BSCA:1,2018-11-03T08:30:00Z,30.3288,-87.8293,0.0,6.5,312.0,99.0,'11111222,11111222,11144222' 
DISL,ioos:station:DISL:BSCA:1,2018-11-03T08:50:00Z,30.3288,-87.8293,0.0,5.33,323.8,-9999.0,'1111122,1111122,1111122' 
DISL,ioos:station:DISL:BSCA:1,2018-11-03T09:00:00Z,30.3288,-87.8293,0.0,4.5,339.0,99.0,'11111222,11111222,11144222' 
DISL,ioos:station:DISL:BSCA:1,2018-11-03T09:30:00Z,30.3288,-87.8293,0.0,3.0,10.0,99.0,'11111222,11111222,11144222' 
DISL,ioos:station:DISL:BSCA:1,2018-11-03T09:50:00Z,30.3288,-87.8293,0.0,2.06,27.13,-9999.0,'1111122,1111122,1111122' 
DISL,ioos:station:DISL:BSCA:1,2018-11-03T10:00:00Z,30.3288,-87.8293,0.0,2.0,23.0,99.0,'11111222,11111222,11144222' 
DISL,ioos:station:DISL:BSCA:1,2018-11-03T10:20:00Z,30.3288,-87.8293,0.0,1.27,87.4,-9999.0,'1111122,1111122,1111122' 
DISL,ioos:station:DISL:BSCA:1,2018-11-03T10:30:00Z,30.3288,-87.8293,0.0,1.6,74.0,99.0,'11111222,11111222,11144222' 
DISL,ioos:station:DISL:BSCA:1,2018-11-03T11:00:00Z,30.3288,-87.8293,0.0,1.9,75.0,99.0,'11111222,11111222,11144222' 
DISL,ioos:station:DISL:BSCA:1,2018-11-03T11:20:00Z,30.3288,-87.8293,0.0,1.73,48.47,-9999.0,'1111122,1111122,1111122' 
DISL,ioos:station:DISL:BSCA:1,2018-11-03T11:30:00Z,30.3288,-87.8293,0.0,1.9,42.0,99.0,'11111222,11111222,11144222' 
DISL,ioos:station:DISL:BSCA:1,2018-11-03T12:00:00Z,30.3288,-87.8293,0.0,2.2,57.0,99.0,'11111222,11111222,11144222' 
DISL,ioos:station:DISL:BSCA:1,2018-11-03T12:30:00Z,30.3288,-87.8293,0.0,2.3,40.0,99.0,'11111222,11111222,11144222' 
DISL,ioos:station:DISL:BSCA:1,2018-11-03T12:50:00Z,30.3288,-87.8293,0.0,1.85,57.88,-9999.0,'1111122,1111122,1111122' 
DISL,ioos:station:DISL:BSCA:1,2018-11-03T13:00:00Z,30.3288,-87.8293,0.0,2.4,55.0,99.0,'11111222,11111222,11144222' 
DISL,ioos:station:DISL:BSCA:1,2018-11-03T13:20:00Z,30.3288,-87.8293,0.0,2.11,67.23,-9999.0,'1111122,1111122,1111122' 
DISL,ioos:station:DISL:BSCA:1,2018-11-03T13:30:00Z,30.3288,-87.8293,0.0,2.1,52.0,99.0,'11111222,11111222,11144222' 
DISL,ioos:station:DISL:BSCA:1,2018-11-03T14:00:00Z,30.3288,-87.8293,0.0,0.5,141.0,99.0,'11111222,11111222,11144222' 
DISL,ioos:station:DISL:BSCA:1,2018-11-03T14:20:00Z,30.3288,-87.8293,0.0,0.66,170.4,-9999.0,'1111122,1111122,1111122' 
DISL,ioos:station:DISL:BSCA:1,2018-11-03T14:30:00Z,30.3288,-87.8293,0.0,1.2,154.0,99.0,'11111222,11111222,11144222' 
DISL,ioos:station:DISL:BSCA:1,2018-11-03T15:00:00Z,30.3288,-87.8293,0.0,2.0,30.0,99.0,'11111222,11111222,11144222' 
DISL,ioos:station:DISL:BSCA:1,2018-11-03T15:20:00Z,30.3288,-87.8293,0.0,1.68,33.64,-9999.0,'1111122,1111122,1111122' 
DISL,ioos:station:DISL:BSCA:1,2018-11-03T15:30:00Z,30.3288,-87.8293,0.0,1.5,34.0,99.0,'11111222,11111222,11144222' 
DISL,ioos:station:DISL:BSCA:1,2018-11-03T16:00:00Z,30.3288,-87.8293,0.0,1.6,56.0,99.0,'11111222,11111222,11144222' 
DISL,ioos:station:DISL:BSCA:1,2018-11-03T16:30:00Z,30.3288,-87.8293,0.0,1.6,50.0,99.0,'11111222,11111222,11144222' 
DISL,ioos:station:DISL:BSCA:1,2018-11-03T16:50:00Z,30.3288,-87.8293,0.0,1.96,205.7,-9999.0,'1111122,1111122,1111122' 
DISL,ioos:station:DISL:BSCA:1,2018-11-03T17:00:00Z,30.3288,-87.8293,0.0,2.1,218.0,99.0,'11111222,11111222,11144222' 
DISL,ioos:station:DISL:BSCA:1,2018-11-03T17:30:00Z,30.3288,-87.8293,0.0,2.4,168.0,99.0,'11111222,11111222,11144222' 
DISL,ioos:station:DISL:BSCA:1,2018-11-03T17:50:00Z,30.3288,-87.8293,0.0,2.97,192.2,-9999.0,'1111122,1111122,1111122' 
DISL,ioos:station:DISL:BSCA:1,2018-11-03T18:00:00Z,30.3288,-87.8293,0.0,3.1,193.0,99.0,'11111222,11111222,11144222' 
DISL,ioos:station:DISL:BSCA:1,2018-11-03T18:20:00Z,30.3288,-87.8293,0.0,4.47,167.6,-9999.0,'1111122,1111122,1111122' 
DISL,ioos:station:DISL:BSCA:1,2018-11-03T18:30:00Z,30.3288,-87.8293,0.0,5.1,157.0,99.0,'11111222,11111222,11144222' 
DISL,ioos:station:DISL:BSCA:1,2018-11-03T19:00:00Z,30.3288,-87.8293,0.0,5.1,144.0,99.0,'11111222,11111222,11144222' 
DISL,ioos:station:DISL:BSCA:1,2018-11-03T19:20:00Z,30.3288,-87.8293,0.0,4.01,157.5,-9999.0,'1111122,1111122,1111122' 
DISL,ioos:station:DISL:BSCA:1,2018-11-03T19:30:00Z,30.3288,-87.8293,0.0,3.7,171.0,99.0,'11111222,11111222,11144222' 
DISL,ioos:station:DISL:BSCA:1,2018-11-03T20:00:00Z,30.3288,-87.8293,0.0,3.2,172.0,99.0,'11111222,11111222,11144222' 
DISL,ioos:station:DISL:BSCA:1,2018-11-03T20:30:00Z,30.3288,-87.8293,0.0,2.7,169.0,99.0,'11111222,11111222,11144222' 
DISL,ioos:station:DISL:BSCA:1,2018-11-03T20:50:00Z,30.3288,-87.8293,0.0,4.09,164.0,-9999.0,'1111122,1111122,1111122' 
DISL,ioos:station:DISL:BSCA:1,2018-11-03T21:00:00Z,30.3288,-87.8293,0.0,4.7,151.0,99.0,'11111222,11111222,11144222' 